Regional Weather Roundup
Issued by NWS Charleston, WV

Home | Current Version | Previous Version | Text Only | Print | Product List | Glossary Off
Versions: 1 2 3 4 5 6 7 8 9 10 11 12 13 14 15 16 17 18 19 20 21 22 23 24 25 26 27 28

000
ASUS41 KRLX 192110
RWRRLX
West Virginia Regional Weather Roundup
National Weather Service Charleston WV
400 PM EST FRI JAN 19 2018

Note: "fair" indicates few or no clouds below 12,000 feet with no
significant weather and/or obstructions to visibility.

WVZ003-192200-
Northern Panhandle of West Virginia

CITY           SKY/WX    TMP DP  RH WIND       PRES   REMARKS
WHEELING         N/A     39  17  41 SW12      30.01F
$$

WVZ009-192200-
Northwest West Virginia

CITY           SKY/WX    TMP DP  RH WIND       PRES   REMARKS
PARKERSBURG      N/A     40  16  37 S13       30.11F
$$

WVZ006-192200-
Western West Virginia

CITY           SKY/WX    TMP DP  RH WIND       PRES   REMARKS
HUNTINGTON       N/A     42  14  32 S8        30.12F
$$

WVZ015-192200-
West Central West Virginia

CITY           SKY/WX    TMP DP  RH WIND       PRES   REMARKS
CHARLESTON       N/A     43  12  28 SW8       30.12S
$$

WVZ022-031-192200-
North Central West Virginia

CITY           SKY/WX    TMP DP  RH WIND       PRES   REMARKS
CLARKSBURG       N/A     40  18  41 SW14      30.08F
MORGANTOWN       N/A     39  16  39 S10G18    30.05F
$$

WVZ025-035-042-045-192200-
Southern West Virginia

CITY           SKY/WX    TMP DP  RH WIND       PRES   REMARKS
BECKLEY          N/A     41   6  23 SW10      30.08F
LOGAN            N/A     43   9  24 CALM      30.11S
BLUEFIELD        N/A     42  -1  16 W12       30.10S
LEWISBURG        N/A     44   0  16 W8        30.09S
$$

WVZ047-192200-
Northern Mountains of West Virginia

CITY           SKY/WX    TMP DP  RH WIND       PRES   REMARKS
ELKINS           N/A     43  21  41 W8        30.06S
$$

WVZ052-192200-
Eastern Panhandle of West Virginia

CITY           SKY/WX    TMP DP  RH WIND       PRES   REMARKS
MARTINSBURG      N/A     50  16  25 W7        30.00F
PETERSBURG       N/A     49  18  29 NW3       30.02S
$$




USA.gov is the U.S. government's official web portal to all federal, state and local government web resources and services.